This is the latest recevied weather packets stored in our database for station/object CQ0XBF-11. If no packets are shown the sender has not sent any weather packets the latest 10 day(s).
| Time | Temp. | Humidity | Pressure | Rain* | Wind** | Luminosity | Snow |
|---|---|---|---|---|---|---|---|
| 1777643562 | 28.33° C | 30% | - | 0 mm | - | - | - |
| 1777643440 | 27.22° C | 30% | - | 0 mm | - | - | - |
| 1777643319 | 27.22° C | 30% | - | 0 mm | - | - | - |
| 1777643236 | 27.22° C | 30% | - | 0 mm | - | - | - |
| 1777643197 | 27.22° C | 30% | - | 0 mm | - | - | - |
| 1777643076 | 27.22° C | 33% | - | 0 mm | - | - | - |
| 1777642954 | 26.67° C | 32% | - | 0 mm | - | - | - |
| 1777642834 | 27.22° C | 33% | - | 0 mm | - | - | - |
| 1777642590 | 27.22° C | 30% | - | 0 mm | - | - | - |
| 1777642468 | 27.78° C | 32% | - | 0 mm | - | - | - |
| 1777642347 | 27.22° C | 31% | - | 0 mm | - | - | - |
| 1777642225 | 27.22° C | 30% | - | 0 mm | - | - | - |
| 1777642104 | 27.22° C | 30% | - | 0 mm | - | - | - |
| 1777641982 | 27.78° C | 31% | - | 0 mm | - | - | - |
| 1777641861 | 27.78° C | 31% | - | 0 mm | - | - | - |
| 1777641618 | 27.22° C | 31% | - | 0 mm | - | - | - |
| 1777641496 | 26.67° C | 31% | - | 0 mm | - | - | - |
| 1777641375 | 26.11° C | 33% | - | 0 mm | - | - | - |
| 1777641253 | 26.11° C | 33% | - | 0 mm | - | - | - |
| 1777641132 | 26.11° C | 34% | - | 0 mm | - | - | - |
| 1777641010 | 25° C | 35% | - | 0 mm | - | - | - |
| 1777640922 | 25° C | 35% | - | 0 mm | - | - | - |
| 1777640889 | 25° C | 35% | - | 0 mm | - | - | - |
| 1777640767 | 25° C | 36% | - | 0 mm | - | - | - |
| 1777640646 | 24.44° C | 35% | - | 0 mm | - | - | - |
* Rain since midnight (hover to see other rain measurements)
** Current wind speed in m/s (hover to see current wind gust speed)